Location: Ashton River Estates
(39.1762°N, 77.0261°W)
Time: 20:33:02
(UTC+00:00)

FengYun 1-2 T - Pass Details

Date: 29 October 2020
Orbit: 846 x 882 km, 98.7° (Epoch: 03 December)

Event Time Altitude Azimuth Distance (km) Brightness Sun altitude
Rises 22:54:43 0° 164° (SSE) 3,467 7.3 -9.3°
Reaches altitude 10° 22:57:06 10° 164° (SSE) 2,531 6.6 -9.7°
Maximum altitude 23:02:45 88° 77° (ENE) 885 4.3 -10.8°
Drops below altitude 10° 23:08:25 10° 347° (NNW) 2,534 6.7 -11.9°
Sets 23:10:48 0° 347° (NNW) 3,471 7.5 -12.3°
